| time (UTC) | temp C | wind direction | speed KPH | gust KPH | rain 1hr cm | rain 24hr cm | rain mn cm | humidity % | barometer mb |
| 20260502140103 | 9 | 350 | 0.0 | 9.7 | 0.00 | 0.00 | 0.00 | 69 | 1021.5 |
| 20260502130555 | 7 | 22 | 0.0 | 6.4 | 0.00 | 0.00 | 0.00 | 75 | 1021.1 |
| 20260502123540 | 6 | 200 | 0.0 | 0.0 | 0.00 | 0.00 | 0.00 | 77 | 1020.9 |
| 20260502123017 | 5 | 200 | 0.0 | 0.0 | 0.00 | 0.00 | 0.00 | 77 | 1020.8 |
| 20260502122559 | 5 | 200 | 0.0 | 0.0 | 0.00 | 0.00 | 0.00 | 78 | 1020.8 |
| 20260502122034 | 5 | 200 | 0.0 | 0.0 | 0.00 | 0.00 | 0.00 | 78 | 1020.7 |
| 20260502121513 | 5 | 201 | 0.0 | 0.0 | 0.00 | 0.00 | 0.00 | 79 | 1020.7 |
| 20260502121051 | 5 | 200 | 0.0 | 0.0 | 0.00 | 0.00 | 0.00 | 79 | 1020.6 |
| 20260502120528 | 5 | 200 | 0.0 | 0.0 | 0.00 | 0.00 | 0.00 | 79 | 1020.5 |
| 20260502115547 | 5 | 201 | 0.0 | 0.0 | 0.00 | 0.00 | 0.00 | 79 | 1020.3 |
| 20260502115021 | 5 | 200 | 0.0 | 0.0 | 0.00 | 0.00 | 0.00 | 78 | 1020.3 |
| 20260502114603 | 5 | 200 | 0.0 | 0.0 | 0.00 | 0.00 | 0.00 | 78 | 1020.2 |
| 20260502114038 | 5 | 200 | 0.0 | 0.0 | 0.00 | 0.00 | 0.00 | 79 | 1020.1 |
| 20260502113514 | 5 | 201 | 0.0 | 0.0 | 0.00 | 0.00 | 0.00 | 78 | 1020.1 |
| 20260502113106 | 5 | 200 | 0.0 | 0.0 | 0.00 | 0.00 | 0.00 | 78 | 1020.1 |
| 20260502112529 | 5 | 200 | 0.0 | 0.0 | 0.00 | 0.00 | 0.00 | 78 | 1020.0 |
| 20260502112006 | 5 | 200 | 0.0 | 0.0 | 0.00 | 0.00 | 0.00 | 78 | 1019.9 |
| 20260502111547 | 5 | 200 | 0.0 | 0.0 | 0.00 | 0.00 | 0.00 | 77 | 1020.0 |
| 20260502111022 | 5 | 200 | 0.0 | 0.0 | 0.00 | 0.00 | 0.00 | 77 | 1019.9 |
| 20260502110604 | 5 | 200 | 0.0 | 0.0 | 0.00 | 0.00 | 0.00 | 77 | 1019.9 |
| 20260502110043 | 5 | 200 | 0.0 | 0.0 | 0.00 | 0.00 | 0.00 | 77 | 1019.9 |
| 20260502105516 | 5 | 200 | 0.0 | 0.0 | 0.00 | 0.00 | 0.00 | 77 | 1019.9 |
| 20260502105058 | 5 | 200 | 0.0 | 0.0 | 0.00 | 0.00 | 0.00 | 77 | 1019.8 |
| 20260502104536 | 5 | 200 | 0.0 | 0.0 | 0.00 | 0.00 | 0.00 | 77 | 1019.8 |
| 20260502104009 | 5 | 200 | 0.0 | 0.0 | 0.00 | 0.00 | 0.00 | 77 | 1019.7 |
| 20260502103549 | 5 | 200 | 0.0 | 0.0 | 0.00 | 0.00 | 0.00 | 77 | 1019.7 |
| 20260502103025 | 5 | 200 | 0.0 | 0.0 | 0.00 | 0.00 | 0.00 | 76 | 1019.7 |
| 20260502102501 | 5 | 200 | 0.0 | 0.0 | 0.00 | 0.00 | 0.00 | 76 | 1019.6 |
| 20260502102042 | 5 | 200 | 0.0 | 0.0 | 0.00 | 0.00 | 0.00 | 76 | 1019.6 |
| 20260502101518 | 5 | 200 | 0.0 | 0.0 | 0.00 | 0.00 | 0.00 | 76 | 1019.5 |
| 20260502101058 | 5 | 200 | 0.0 | 0.0 | 0.00 | 0.00 | 0.00 | 76 | 1019.5 |
| 20260502100533 | 5 | 200 | 0.0 | 0.0 | 0.00 | 0.00 | 0.00 | 75 | 1019.4 |
| 20260502091028 | 6 | 200 | 0.0 | 0.0 | 0.00 | 0.00 | 0.00 | 71 | 1019.2 |
| 20260502090502 | 6 | 200 | 0.0 | 0.0 | 0.00 | 0.00 | 0.00 | 70 | 1019.2 |
| 20260502071030 | 8 | 201 | 0.0 | 0.0 | 0.00 | 0.00 | 0.00 | 60 | 1018.8 |
| 20260502070503 | 8 | 200 | 0.0 | 0.0 | 0.00 | 0.00 | 0.00 | 60 | 1018.9 |
| 20260502065522 | 8 | 200 | 0.0 | 0.0 | 0.00 | 0.00 | 0.00 | 59 | 1018.9 |
| 20260502065103 | 8 | 200 | 0.0 | 0.0 | 0.00 | 0.00 | 0.00 | 58 | 1018.9 |
| 20260502064545 | 8 | 200 | 0.0 | 0.0 | 0.00 | 0.00 | 0.00 | 58 | 1018.9 |
| 20260502064014 | 8 | 200 | 0.0 | 0.0 | 0.00 | 0.00 | 0.00 | 58 | 1018.9 |
| 20260502063555 | 8 | 200 | 0.0 | 0.0 | 0.00 | 0.00 | 0.00 | 57 | 1018.9 |
| 20260502063034 | 8 | 200 | 0.0 | 0.0 | 0.00 | 0.00 | 0.00 | 57 | 1018.9 |
| 20260502062508 | 9 | 200 | 0.0 | 0.0 | 0.00 | 0.00 | 0.00 | 57 | 1018.9 |
| 20260502062048 | 9 | 200 | 0.0 | 0.0 | 0.00 | 0.00 | 0.00 | 57 | 1018.9 |
| 20260502061524 | 9 | 200 | 0.0 | 0.0 | 0.00 | 0.00 | 0.00 | 57 | 1018.9 |
| 20260502061107 | 9 | 200 | 0.0 | 0.0 | 0.00 | 0.00 | 0.00 | 56 | 1018.9 |
| 20260502060538 | 9 | 200 | 0.0 | 0.0 | 0.00 | 0.00 | 0.00 | 57 | 1018.9 |
| 20260502060027 | 9 | 200 | 0.0 | 0.0 | 0.00 | 0.00 | 0.00 | 56 | 1018.9 |
| 20260502055556 | 9 | 200 | 0.0 | 0.0 | 0.00 | 0.00 | 0.00 | 56 | 1019.0 |
| 20260502055034 | 9 | 200 | 0.0 | 0.0 | 0.00 | 0.00 | 0.00 | 55 | 1019.0 |
| 20260502054509 | 10 | 200 | 0.0 | 0.0 | 0.00 | 0.00 | 0.00 | 55 | 1018.9 |
| 20260502054051 | 10 | 200 | 0.0 | 0.0 | 0.00 | 0.00 | 0.00 | 54 | 1018.9 |
| 20260502053525 | 10 | 200 | 0.0 | 0.0 | 0.00 | 0.00 | 0.00 | 55 | 1018.9 |
| 20260502053002 | 10 | 201 | 0.0 | 0.0 | 0.00 | 0.00 | 0.00 | 55 | 1018.9 |
| 20260502052543 | 10 | 200 | 0.0 | 0.0 | 0.00 | 0.00 | 0.00 | 56 | 1018.8 |
| 20260502052021 | 10 | 200 | 0.0 | 1.6 | 0.00 | 0.00 | 0.00 | 56 | 1018.9 |
| 20260502051603 | 10 | 200 | 0.0 | 1.6 | 0.00 | 0.00 | 0.00 | 55 | 1018.9 |
| 20260502051037 | 10 | 22 | 0.0 | 1.6 | 0.00 | 0.00 | 0.00 | 54 | 1018.8 |
| 20260502050510 | 10 | 22 | 0.0 | 1.6 | 0.00 | 0.00 | 0.00 | 55 | 1018.7 |
| 20260502050051 | 10 | 22 | 0.0 | 1.6 | 0.00 | 0.00 | 0.00 | 56 | 1018.7 |
| 20260502045528 | 10 | 8 | 0.0 | 1.6 | 0.00 | 0.00 | 0.00 | 56 | 1018.7 |
| 20260502045007 | 10 | 8 | 0.0 | 1.6 | 0.00 | 0.00 | 0.00 | 57 | 1018.8 |
| 20260502044546 | 10 | 335 | 0.0 | 1.6 | 0.00 | 0.00 | 0.00 | 57 | 1018.8 |
| 20260502044022 | 10 | 335 | 0.0 | 1.6 | 0.00 | 0.00 | 0.00 | 58 | 1018.8 |
| 20260502043604 | 10 | 335 | 0.0 | 0.0 | 0.00 | 0.00 | 0.00 | 60 | 1018.8 |
| 20260502043050 | 10 | 335 | 0.0 | 0.0 | 0.00 | 0.00 | 0.00 | 60 | 1018.7 |
| 20260502042514 | 9 | 335 | 0.0 | 0.0 | 0.00 | 0.00 | 0.00 | 61 | 1018.7 |
| 20260502042055 | 9 | 335 | 0.0 | 0.0 | 0.00 | 0.00 | 0.00 | 65 | 1018.7 |
| 20260502041553 | 9 | 335 | 0.0 | 0.0 | 0.00 | 0.00 | 0.00 | 66 | 1018.6 |
| 20260502041005 | 9 | 335 | 0.0 | 0.0 | 0.00 | 0.00 | 0.00 | 65 | 1018.6 |
| 20260502040550 | 10 | 335 | 0.0 | 0.0 | 0.00 | 0.00 | 0.00 | 65 | 1018.6 |
| 20260502040042 | 10 | 335 | 0.0 | 0.0 | 0.00 | 0.00 | 0.00 | 65 | 1018.6 |
| 20260502035603 | 10 | 335 | 0.0 | 0.0 | 0.00 | 0.00 | 0.00 | 64 | 1018.6 |
| 20260502035040 | 10 | 335 | 0.0 | 0.0 | 0.00 | 0.00 | 0.00 | 63 | 1018.5 |
| 20260502034514 | 10 | 335 | 0.0 | 0.0 | 0.00 | 0.00 | 0.00 | 63 | 1018.5 |
| 20260502034055 | 10 | 335 | 0.0 | 0.0 | 0.00 | 0.00 | 0.00 | 62 | 1018.5 |
| 20260502033530 | 10 | 335 | 0.0 | 0.0 | 0.00 | 0.00 | 0.00 | 61 | 1018.5 |
| 20260502033006 | 10 | 335 | 0.0 | 0.0 | 0.00 | 0.00 | 0.00 | 59 | 1018.5 |
| 20260502032545 | 10 | 335 | 0.0 | 0.0 | 0.00 | 0.00 | 0.00 | 58 | 1018.4 |
| 20260502032022 | 11 | 335 | 0.0 | 0.0 | 0.00 | 0.00 | 0.00 | 58 | 1018.4 |
| 20260502031603 | 11 | 335 | 0.0 | 0.0 | 0.00 | 0.00 | 0.00 | 58 | 1018.4 |
| 20260502031038 | 11 | 335 | 0.0 | 0.0 | 0.00 | 0.00 | 0.00 | 56 | 1018.2 |
| 20260502030515 | 11 | 335 | 0.0 | 0.0 | 0.00 | 0.00 | 0.00 | 56 | 1018.2 |
| 20260502030117 | 11 | 335 | 0.0 | 0.0 | 0.00 | 0.00 | 0.00 | 54 | 1018.2 |
| 20260502025533 | 11 | 335 | 0.0 | 0.0 | 0.00 | 0.00 | 0.00 | 52 | 1018.1 |
| 20260502025014 | 12 | 335 | 0.0 | 0.0 | 0.00 | 0.00 | 0.00 | 51 | 1018.1 |
| 20260502024603 | 12 | 335 | 0.0 | 0.0 | 0.00 | 0.00 | 0.00 | 51 | 1018.0 |
| 20260502024026 | 12 | 335 | 0.0 | 0.0 | 0.00 | 0.00 | 0.00 | 51 | 1017.9 |
| 20260502023502 | 12 | 335 | 0.0 | 0.0 | 0.00 | 0.00 | 0.00 | 50 | 1017.8 |
| 20260502023100 | 12 | 335 | 0.0 | 0.0 | 0.00 | 0.00 | 0.00 | 49 | 1017.8 |
| 20260502022521 | 12 | 335 | 0.0 | 0.0 | 0.00 | 0.00 | 0.00 | 50 | 1017.7 |
| 20260502022059 | 13 | 335 | 0.0 | 0.0 | 0.00 | 0.00 | 0.00 | 50 | 1017.6 |
| 20260502021535 | 13 | 335 | 0.0 | 1.6 | 0.00 | 0.00 | 0.00 | 48 | 1017.5 |
| 20260502021011 | 13 | 335 | 0.0 | 1.6 | 0.00 | 0.00 | 0.00 | 47 | 1017.4 |
| 20260502020551 | 13 | 335 | 0.0 | 1.6 | 0.00 | 0.00 | 0.00 | 47 | 1017.4 |
| 20260502020028 | 13 | 335 | 0.0 | 0.0 | 0.00 | 0.00 | 0.00 | 48 | 1017.2 |
| 20260502015504 | 13 | 335 | 0.0 | 1.6 | 0.00 | 0.00 | 0.00 | 46 | 1017.1 |
| 20260502015045 | 13 | 335 | 0.0 | 3.2 | 0.00 | 0.00 | 0.00 | 45 | 1017.1 |
| 20260502014524 | 13 | 20 | 0.0 | 3.2 | 0.00 | 0.00 | 0.00 | 45 | 1017.0 |
| 20260502014101 | 13 | 360 | 0.0 | 6.4 | 0.00 | 0.00 | 0.00 | 45 | 1017.0 |
| 20260502013538 | 14 | 360 | 0.0 | 6.4 | 0.00 | 0.00 | 0.00 | 44 | 1016.9 |
| 20260502013015 | 14 | 13 | 0.0 | 3.2 | 0.00 | 0.00 | 0.00 | 44 | 1016.8 |
| 20260502012555 | 14 | 9 | 0.0 | 3.2 | 0.00 | 0.00 | 0.00 | 43 | 1016.7 |
| 20260502012029 | 14 | 327 | 0.0 | 1.6 | 0.00 | 0.00 | 0.00 | 42 | 1016.6 |
| 20260502011504 | 14 | 327 | 0.0 | 1.6 | 0.00 | 0.00 | 0.00 | 43 | 1016.5 |
| 20260502011045 | 15 | 327 | 0.0 | 1.6 | 0.00 | 0.00 | 0.00 | 42 | 1016.5 |
| 20260502010520 | 15 | 327 | 0.0 | 6.4 | 0.00 | 0.00 | 0.00 | 42 | 1016.4 |
| 20260502005537 | 15 | 30 | 0.0 | 3.2 | 0.00 | 0.00 | 0.00 | 39 | 1016.2 |
| 20260502005012 | 15 | 309 | 0.0 | 3.2 | 0.00 | 0.00 | 0.00 | 39 | 1016.2 |
| 20260502004554 | 15 | 320 | 0.0 | 3.2 | 0.00 | 0.00 | 0.00 | 38 | 1016.1 |
| 20260502004029 | 15 | 23 | 0.0 | 3.2 | 0.00 | 0.00 | 0.00 | 38 | 1016.0 |
| 20260502003505 | 16 | 316 | 0.0 | 4.8 | 0.00 | 0.00 | 0.00 | 38 | 1015.9 |
| 20260502003046 | 16 | 316 | 0.0 | 4.8 | 0.00 | 0.00 | 0.00 | 37 | 1015.8 |
| 20260502002527 | 16 | 9 | 0.0 | 8.0 | 0.00 | 0.00 | 0.00 | 37 | 1015.8 |
| 20260502002103 | 16 | 9 | 0.0 | 8.0 | 0.00 | 0.00 | 0.00 | 37 | 1015.8 |
| 20260502001542 | 16 | 328 | 0.0 | 4.8 | 0.00 | 0.00 | 0.00 | 37 | 1015.7 |
| 20260502001013 | 16 | 27 | 0.0 | 6.4 | 0.00 | 0.00 | 0.00 | 36 | 1015.7 |
| 20260502000554 | 16 | 304 | 1.6 | 6.4 | 0.00 | 0.00 | 0.00 | 37 | 1015.6 |
| 20260502000048 | 16 | 323 | 0.0 | 3.2 | 0.00 | 0.00 | 0.00 | 36 | 1015.6 |
| 20260501235506 | 16 | 352 | 0.0 | 6.4 | 0.00 | 0.00 | 0.00 | 37 | 1015.5 |
| 20260501235047 | 16 | 314 | 0.0 | 6.4 | 0.00 | 0.00 | 0.00 | 36 | 1015.6 |
| 20260501234524 | 16 | 306 | 1.6 | 8.0 | 0.00 | 0.00 | 0.00 | 36 | 1015.5 |
| 20260501234104 | 16 | 49 | 0.0 | 8.0 | 0.00 | 0.00 | 0.00 | 36 | 1015.5 |
| 20260501233540 | 16 | 11 | 1.6 | 9.7 | 0.00 | 0.00 | 0.00 | 36 | 1015.5 |
| 20260501233017 | 16 | 18 | 3.2 | 12.9 | 0.00 | 0.00 | 0.00 | 35 | 1015.5 |
| 20260501232559 | 16 | 343 | 1.6 | 12.9 | 0.00 | 0.00 | 0.00 | 35 | 1015.4 |
| 20260501232036 | 16 | 321 | 3.2 | 14.5 | 0.00 | 0.00 | 0.00 | 34 | 1015.5 |
| 20260501231510 | 16 | 300 | 1.6 | 8.0 | 0.00 | 0.00 | 0.00 | 34 | 1015.5 |
| 20260501231051 | 16 | 295 | 0.0 | 8.0 | 0.00 | 0.00 | 0.00 | 34 | 1015.4 |
| 20260501230525 | 17 | 325 | 0.0 | 4.8 | 0.00 | 0.00 | 0.00 | 33 | 1015.4 |
| 20260501230002 | 17 | 323 | 0.0 | 4.8 | 0.00 | 0.00 | 0.00 | 33 | 1015.5 |
| 20260501225543 | 17 | 358 | 0.0 | 12.9 | 0.00 | 0.00 | 0.00 | 35 | 1015.4 |
| 20260501225018 | 17 | 279 | 1.6 | 12.9 | 0.00 | 0.00 | 0.00 | 34 | 1015.5 |
| 20260501224607 | 17 | 355 | 4.8 | 12.9 | 0.00 | 0.00 | 0.00 | 33 | 1015.5 |
| 20260501224034 | 17 | 344 | 3.2 | 12.9 | 0.00 | 0.00 | 0.00 | 34 | 1015.6 |
| 20260501223510 | 17 | 354 | 0.0 | 6.4 | 0.00 | 0.00 | 0.00 | 33 | 1015.6 |
| 20260501223055 | 17 | 314 | 1.6 | 6.4 | 0.00 | 0.00 | 0.00 | 32 | 1015.5 |
| 20260501222528 | 17 | 330 | 0.0 | 6.4 | 0.00 | 0.00 | 0.00 | 35 | 1015.5 |
| 20260501222002 | 17 | 322 | 1.6 | 8.0 | 0.00 | 0.00 | 0.00 | 37 | 1015.6 |
| 20260501221543 | 17 | 283 | 1.6 | 8.0 | 0.00 | 0.00 | 0.00 | 36 | 1015.6 |
| 20260501221022 | 17 | 277 | 0.0 | 4.8 | 0.00 | 0.00 | 0.00 | 37 | 1015.6 |
| 20260501220601 | 17 | 257 | 0.0 | 6.4 | 0.00 | 0.00 | 0.00 | 38 | 1015.7 |
| 20260501220040 | 17 | 304 | 1.6 | 6.4 | 0.00 | 0.00 | 0.00 | 38 | 1015.7 |
| 20260501215516 | 17 | 259 | 0.0 | 4.8 | 0.00 | 0.00 | 0.00 | 41 | 1015.6 |
| 20260501215055 | 17 | 297 | 0.0 | 6.4 | 0.00 | 0.00 | 0.00 | 39 | 1015.8 |
| 20260501214530 | 17 | 315 | 1.6 | 6.4 | 0.00 | 0.00 | 0.00 | 40 | 1015.9 |
| 20260501214005 | 17 | 248 | 0.0 | 3.2 | 0.00 | 0.00 | 0.00 | 38 | 1015.9 |
| 20260501213546 | 16 | 309 | 1.6 | 6.4 | 0.00 | 0.00 | 0.00 | 37 | 1016.1 |
| 20260501213026 | 17 | 295 | 1.6 | 6.4 | 0.00 | 0.00 | 0.00 | 36 | 1016.1 |
| 20260501212603 | 17 | 288 | 3.2 | 6.4 | 0.00 | 0.00 | 0.00 | 36 | 1016.2 |
| 20260501212039 | 17 | 295 | 1.6 | 4.8 | 0.00 | 0.00 | 0.00 | 37 | 1016.2 |
| 20260501211515 | 17 | 296 | 1.6 | 4.8 | 0.00 | 0.00 | 0.00 | 38 | 1016.3 |
| 20260501211055 | 17 | 312 | 0.0 | 4.8 | 0.00 | 0.00 | 0.00 | 38 | 1016.4 |
| 20260501210534 | 17 | 315 | 0.0 | 3.2 | 0.00 | 0.00 | 0.00 | 40 | 1016.6 |
| 20260501210008 | 16 | 254 | 0.0 | 4.8 | 0.00 | 0.00 | 0.00 | 39 | 1016.6 |
| 20260501205550 | 16 | 345 | 0.0 | 4.8 | 0.00 | 0.00 | 0.00 | 39 | 1016.7 |
| 20260501205023 | 16 | 293 | 0.0 | 6.4 | 0.00 | 0.00 | 0.00 | 38 | 1016.8 |
| 20260501204603 | 17 | 323 | 0.0 | 6.4 | 0.00 | 0.00 | 0.00 | 37 | 1016.8 |
| 20260501204043 | 17 | 279 | 0.0 | 1.6 | 0.00 | 0.00 | 0.00 | 38 | 1016.9 |
| 20260501203515 | 17 | 279 | 0.0 | 4.8 | 0.00 | 0.00 | 0.00 | 38 | 1017.0 |
| 20260501203057 | 17 | 280 | 0.0 | 4.8 | 0.00 | 0.00 | 0.00 | 37 | 1017.0 |
| 20260501202532 | 17 | 300 | 0.0 | 3.2 | 0.00 | 0.00 | 0.00 | 37 | 1017.0 |
| 20260501202008 | 17 | 244 | 0.0 | 3.2 | 0.00 | 0.00 | 0.00 | 38 | 1017.1 |
| 20260501201549 | 17 | 355 | 0.0 | 3.2 | 0.00 | 0.00 | 0.00 | 40 | 1017.1 |
| 20260501201027 | 17 | 94 | 0.0 | 6.4 | 0.00 | 0.00 | 0.00 | 37 | 1017.3 |
| 20260501200500 | 17 | 313 | 1.6 | 6.4 | 0.00 | 0.00 | 0.00 | 37 | 1017.4 |
| 20260501200043 | 17 | 283 | 1.6 | 4.8 | 0.00 | 0.00 | 0.00 | 37 | 1017.4 |
| 20260501195518 | 17 | 278 | 1.6 | 4.8 | 0.00 | 0.00 | 0.00 | 39 | 1017.5 |
| 20260501195058 | 16 | 313 | 0.0 | 6.4 | 0.00 | 0.00 | 0.00 | 40 | 1017.6 |
| 20260501194534 | 16 | 313 | 1.6 | 6.4 | 0.00 | 0.00 | 0.00 | 38 | 1017.6 |
| 20260501194011 | 16 | 280 | 1.6 | 4.8 | 0.00 | 0.00 | 0.00 | 37 | 1017.7 |
| 20260501193553 | 17 | 295 | 0.0 | 1.6 | 0.00 | 0.00 | 0.00 | 37 | 1017.7 |
| 20260501193033 | 17 | 36 | 0.0 | 3.2 | 0.00 | 0.00 | 0.00 | 36 | 1017.8 |
| 20260501192503 | 17 | 262 | 0.0 | 4.8 | 0.00 | 0.00 | 0.00 | 37 | 1017.8 |
| 20260501192045 | 16 | 288 | 0.0 | 4.8 | 0.00 | 0.00 | 0.00 | 37 | 1017.8 |
| 20260501191520 | 16 | 262 | 1.6 | 6.4 | 0.00 | 0.00 | 0.00 | 37 | 1017.8 |
| 20260501191105 | 16 | 324 | 1.6 | 6.4 | 0.00 | 0.00 | 0.00 | 37 | 1017.7 |
| 20260501190537 | 16 | 324 | 1.6 | 6.4 | 0.00 | 0.00 | 0.00 | 37 | 1017.8 |
| 20260501190014 | 16 | 332 | 0.0 | 8.0 | 0.00 | 0.00 | 0.00 | 35 | 1017.7 |
| 20260501185554 | 16 | 316 | 1.6 | 8.0 | 0.00 | 0.00 | 0.00 | 33 | 1017.8 |
| 20260501185030 | 16 | 252 | 1.6 | 4.8 | 0.00 | 0.00 | 0.00 | 34 | 1017.8 |
| 20260501184506 | 17 | 288 | 0.0 | 4.8 | 0.00 | 0.00 | 0.00 | 37 | 1017.9 |
| 20260501184047 | 17 | 262 | 0.0 | 6.4 | 0.00 | 0.00 | 0.00 | 37 | 1017.8 |
| 20260501183523 | 16 | 309 | 0.0 | 6.4 | 0.00 | 0.00 | 0.00 | 37 | 1017.8 |
| 20260501183108 | 16 | 295 | 0.0 | 4.8 | 0.00 | 0.00 | 0.00 | 37 | 1017.8 |
| 20260501182539 | 16 | 1 | 1.6 | 6.4 | 0.00 | 0.00 | 0.00 | 35 | 1017.8 |
| 20260501182014 | 16 | 313 | 0.0 | 6.4 | 0.00 | 0.00 | 0.00 | 38 | 1017.9 |
| 20260501181557 | 16 | 270 | 0.0 | 4.8 | 0.00 | 0.00 | 0.00 | 39 | 1018.0 |
| 20260501181031 | 16 | 339 | 0.0 | 4.8 | 0.00 | 0.00 | 0.00 | 37 | 1017.9 |
| 20260501180509 | 16 | 264 | 0.0 | 6.4 | 0.00 | 0.00 | 0.00 | 37 | 1018.0 |
| 20260501180049 | 16 | 20 | 0.0 | 6.4 | 0.00 | 0.00 | 0.00 | 37 | 1018.0 |
| 20260501175524 | 16 | 30 | 1.6 | 6.4 | 0.00 | 0.00 | 0.00 | 38 | 1018.1 |
| 20260501175105 | 16 | 320 | 0.0 | 1.6 | 0.00 | 0.00 | 0.00 | 39 | 1018.1 |
| 20260501174541 | 16 | 328 | 0.0 | 6.4 | 0.00 | 0.00 | 0.00 | 40 | 1018.2 |
| 20260501174016 | 16 | 21 | 0.0 | 4.8 | 0.00 | 0.00 | 0.00 | 39 | 1018.3 |
| 20260501173556 | 16 | 321 | 0.0 | 6.4 | 0.00 | 0.00 | 0.00 | 38 | 1018.3 |
| 20260501173032 | 16 | 25 | 0.0 | 12.9 | 0.00 | 0.00 | 0.00 | 38 | 1018.4 |
| 20260501172508 | 16 | 354 | 3.2 | 12.9 | 0.00 | 0.00 | 0.00 | 39 | 1018.4 |
| 20260501172048 | 16 | 71 | 0.0 | 3.2 | 0.00 | 0.00 | 0.00 | 38 | 1018.5 |
| 20260501171525 | 16 | 333 | 0.0 | 3.2 | 0.00 | 0.00 | 0.00 | 41 | 1018.6 |
| 20260501171103 | 16 | 276 | 0.0 | 3.2 | 0.00 | 0.00 | 0.00 | 43 | 1018.5 |
| 20260501170540 | 15 | 153 | 0.0 | 4.8 | 0.00 | 0.00 | 0.00 | 43 | 1018.5 |
| 20260501170017 | 16 | 302 | 1.6 | 4.8 | 0.00 | 0.00 | 0.00 | 41 | 1018.6 |
| 20260501165558 | 15 | 151 | 0.0 | 3.2 | 0.00 | 0.00 | 0.00 | 45 | 1018.6 |
| 20260501165033 | 15 | 141 | 1.6 | 3.2 | 0.00 | 0.00 | 0.00 | 45 | 1018.6 |
| 20260501164508 | 15 | 150 | 0.0 | 1.6 | 0.00 | 0.00 | 0.00 | 44 | 1018.6 |
| 20260501164048 | 15 | 150 | 0.0 | 3.2 | 0.00 | 0.00 | 0.00 | 44 | 1018.7 |
| 20260501163524 | 15 | 323 | 0.0 | 3.2 | 0.00 | 0.00 | 0.00 | 42 | 1018.7 |
| 20260501163104 | 15 | 323 | 0.0 | 3.2 | 0.00 | 0.00 | 0.00 | 45 | 1018.6 |
| 20260501162541 | 15 | 328 | 0.0 | 4.8 | 0.00 | 0.00 | 0.00 | 41 | 1018.6 |
| 20260501162017 | 15 | 133 | 0.0 | 6.4 | 0.00 | 0.00 | 0.00 | 47 | 1018.6 |
| 20260501161558 | 15 | 263 | 0.0 | 6.4 | 0.00 | 0.00 | 0.00 | 46 | 1018.6 |
| 20260501161035 | 15 | 264 | 0.0 | 3.2 | 0.00 | 0.00 | 0.00 | 45 | 1018.6 |
| 20260501160511 | 15 | 264 | 0.0 | 3.2 | 0.00 | 0.00 | 0.00 | 45 | 1018.6 |
| 20260501160052 | 14 | 323 | 0.0 | 4.8 | 0.00 | 0.00 | 0.00 | 46 | 1018.6 |
| 20260501155527 | 14 | 166 | 1.6 | 4.8 | 0.00 | 0.00 | 0.00 | 46 | 1018.6 |
| 20260501155003 | 14 | 171 | 0.0 | 4.8 | 0.00 | 0.00 | 0.00 | 47 | 1018.6 |
| 20260501154547 | 14 | 172 | 0.0 | 4.8 | 0.00 | 0.00 | 0.00 | 47 | 1018.6 |
| 20260501154018 | 14 | 165 | 1.6 | 4.8 | 0.00 | 0.00 | 0.00 | 48 | 1018.6 |
| 20260501153601 | 14 | 124 | 0.0 | 4.8 | 0.00 | 0.00 | 0.00 | 49 | 1018.6 |
| 20260501153035 | 13 | 138 | 0.0 | 4.8 | 0.00 | 0.00 | 0.00 | 45 | 1018.6 |
| 20260501152512 | 13 | 163 | 0.0 | 4.8 | 0.00 | 0.00 | 0.00 | 45 | 1018.6 |
| 20260501152055 | 13 | 127 | 0.0 | 4.8 | 0.00 | 0.00 | 0.00 | 44 | 1018.6 |
| 20260501151529 | 13 | 167 | 0.0 | 4.8 | 0.00 | 0.00 | 0.00 | 46 | 1018.6 |
| 20260501151004 | 13 | 149 | 0.0 | 4.8 | 0.00 | 0.00 | 0.00 | 48 | 1018.5 |
| 20260501150546 | 13 | 171 | 0.0 | 4.8 | 0.00 | 0.00 | 0.00 | 46 | 1018.5 |
| 20260501150023 | 13 | 150 | 0.0 | 3.2 | 0.00 | 0.00 | 0.00 | 48 | 1018.5 |
| 20260501145604 | 13 | 127 | 0.0 | 3.2 | 0.00 | 0.00 | 0.00 | 49 | 1018.4 |
| 20260501145038 | 12 | 264 | 0.0 | 3.2 | 0.00 | 0.00 | 0.00 | 50 | 1018.4 |
| 20260501144513 | 12 | 172 | 0.0 | 3.2 | 0.00 | 0.00 | 0.00 | 47 | 1018.5 |
| 20260501144057 | 12 | 117 | 0.0 | 1.6 | 0.00 | 0.00 | 0.00 | 50 | 1018.6 |
| 20260501143529 | 12 | 117 | 0.0 | 3.2 | 0.00 | 0.00 | 0.00 | 49 | 1018.7 |
| 20260501143005 | 12 | 117 | 0.0 | 3.2 | 0.00 | 0.00 | 0.00 | 54 | 1018.7 |
| 20260501142549 | 12 | 150 | 0.0 | 3.2 | 0.00 | 0.00 | 0.00 | 58 | 1018.7 |
| 20260501142022 | 12 | 166 | 0.0 | 3.2 | 0.00 | 0.00 | 0.00 | 61 | 1018.8 |